CDT,Max TemperatureF,Mean TemperatureF,Min TemperatureF,Max Dew PointF,MeanDew PointF,Min DewpointF,Max Humidity, Mean Humidity, Min Humidity, Max Sea Level PressureIn, Mean Sea Level PressureIn, Min Sea Level PressureIn, Max VisibilityMiles, Mean VisibilityMiles, Min VisibilityMiles, Max Wind SpeedMPH, Mean Wind SpeedMPH, Max Gust SpeedMPH,PrecipitationIn, CloudCover, Events, WindDirDegrees
2013-3-1,26,18,10,14,10,1,85,66,34,30.27,30.23,30.16,10,10,5,14,8,21,0.00,3,Snow,27
2013-3-2,28,14,0,12,6,-6,86,67,37,30.25,30.18,30.10,10,10,3,14,3,20,0.00,0,Snow,14
2013-3-3,32,12,-7,10,0,-15,85,59,27,30.11,30.06,30.00,10,10,10,8,1,,0.00,0,,24
2013-3-4,33,22,10,14,9,5,86,55,38,30.08,30.04,30.00,10,10,10,12,5,16,0.00,4,,118
2013-3-5,32,28,23,19,15,9,86,66,43,30.15,30.05,30.00,10,10,7,14,7,20,0.00,8,Snow,61
2013-3-6,30,20,10,21,17,7,93,77,51,30.27,30.22,30.15,10,10,4,13,8,,0.00,5,Snow,345
2013-3-7,32,20,8,18,12,3,86,72,51,30.35,30.31,30.26,10,10,5,6,1,,0.00,4,Snow,123
2013-3-8,37,26,14,25,19,10,86,69,52,30.35,30.28,30.18,10,10,7,16,7,21,0.00,0,,174
2013-3-9,35,34,32,34,30,23,93,86,69,30.17,29.92,29.74,10,7,0,14,7,23,0.20,6,Snow,158
2013-3-10,35,32,30,34,30,27,100,90,80,29.89,29.82,29.72,10,7,0,16,7,25,0.05,8,Fog-Snow,18
2013-3-11,30,26,23,28,23,18,93,83,74,29.78,29.65,29.59,10,4,1,20,11,26,0.10,6,Snow,1
2013-3-12,24,22,19,19,17,14,86,81,64,29.96,29.77,29.66,10,6,1,21,8,25,0.00,6,Snow,321
2013-3-13,32,22,12,14,8,3,85,60,32,30.20,30.13,29.98,10,10,5,18,7,24,0.00,0,,332
2013-3-14,35,18,0,27,13,-6,85,71,41,30.19,30.08,29.93,10,10,5,13,3,16,0.00,2,,229
2013-3-15,32,24,17,28,20,12,93,73,51,29.93,29.89,29.86,10,8,2,13,7,17,0.02,7,Snow,10
2013-3-16,23,18,12,12,9,3,86,71,54,30.08,29.96,29.89,10,8,2,15,6,22,0.00,6,Snow,341
2013-3-17,26,10,-7,10,-1,-13,85,57,26,30.19,30.11,29.96,10,10,2,12,5,17,0.00,1,Snow,149
2013-3-18,28,22,17,27,19,10,93,81,68,29.95,29.64,29.45,10,6,1,15,10,25,0.03,7,Snow,164
2013-3-19,28,21,14,14,9,3,86,65,40,29.87,29.67,29.46,10,6,1,20,12,30,0.00,5,Snow,295
2013-3-20,19,12,5,10,4,-2,79,65,53,29.98,29.91,29.87,10,10,5,16,10,24,0.00,4,Snow,310
2013-3-21,26,19,10,14,11,5,86,74,55,29.96,29.94,29.93,10,8,2,13,5,17,0.00,5,Snow,336
2013-3-22,32,16,0,23,13,-6,86,75,64,30.03,29.99,29.96,10,9,0,9,2,9,0.00,6,Fog-Snow,6
2013-3-23,32,28,23,23,21,18,86,77,64,30.13,30.07,30.03,10,10,10,9,2,,0.00,8,,24
2013-3-24,32,26,19,27,21,16,93,76,69,30.06,29.98,29.90,10,10,2,15,6,21,0.00,7,Snow,33
2013-3-25,33,24,14,27,20,12,93,77,60,30.12,29.99,29.91,10,10,5,17,8,24,0.00,6,,8
2013-3-26,35,27,19,28,22,16,93,74,56,30.21,30.16,30.11,10,10,10,12,4,9,0.00,8,Snow,350
2013-3-27,37,30,23,23,19,14,75,57,38,30.26,30.24,30.21,10,10,10,13,3,16,0.00,5,,335
2013-3-28,42,28,14,23,15,10,93,59,31,30.28,30.25,30.22,10,10,10,12,2,16,0.00,0,,337
2013-3-29,48,32,17,21,17,10,86,56,27,30.27,30.21,30.11,10,10,10,12,2,16,0.00,0,,240
2013-3-30,37,35,33,36,31,19,93,84,52,30.11,29.88,29.73,10,4,0,12,6,17,0.46,7,Fog-Rain-Snow,200
2013-3-31,35,29,23,34,25,10,100,79,44,29.88,29.70,29.61,10,7,0,28,8,37,0.00,6,Fog-Snow,308